Weather History for Redding, CA

Change the Weather History Date:

Saturday, October 20, 2012

  Actual Average Record
Temperature  
Mean Temperature 64 °F -  
Max Temperature 78 °F 76 °F 96 °F (1988)
Min Temperature 50 °F 48 °F 40 °F (1996)
Degree Days  
Heating Degree Days 1    
Month to date heating degree days 13  
Cooling Degree Days 0    
Month to date cooling degree days 83  
Year to date cooling degree days 1940  
Growing Degree Days 14 (Base 50)    
Moisture  
Dew Point 41 °F    
Average Humidity 56    
Maximum Humidity 89    
Minimum Humidity 22    
Precipitation  
Precipitation 0.00 in 0.08 in 0.93 in (1992)
Month to date precipitation 0.00 1.04  
Year to date precipitation 17.29 22.81  
Since 1 July precipitation T 1.95  
Sea Level Pressure  
Sea Level Pressure 29.80 in    
Wind  
Wind Speed 2 mph (WNW)    
Max Wind Speed 9 mph    
Max Gust Speed 12 mph    
Visibility 10 miles    
Events      
T = Trace of Precipitation, MM = Missing Value Source: NWS Daily Summary

Daily Weather History Graph

Daily Weather History Graph

Search for Another Location

Airport:

Trip Planner

Search our weather history database for the weather conditions in past years. The results will help you decide how hot, cold, wet, or windy it might be!

Date:

Astronomy

Oct. 20, 2012 Rise Set
Actual Time 7:26 AM PDT 6:20 PM PDT
Civil Twilight 6:58 AM PDT 6:48 PM PDT
Nautical Twilight 6:26 AM PDT 7:20 PM PDT
Astronomical Twilight 5:55 AM PDT 7:51 PM PDT
Moon 1:07 PM PDT (10/20) 11:12 PM PDT (10/20)
Length of Visible Light 11h 50m
Length of Day
10h 54m
Waxing Crescent, 35% of the Moon is Illuminated
Oct 20
Waxing Crescent
Oct 21
First Quarter
Oct 29
Full
Nov 6
Last Quarter
Nov 13
New

Hourly Weather History & Observations

Time (PDT) Temp. Dew Point Humidity Pressure Visibility Wind Dir Wind Speed Gust Speed Precip Events Conditions
12:53 AM 59.0 °F 51.1 °F 75% 29.86 in 10.0 mi Calm Calm - N/A   Clear
1:53 AM 57.0 °F 50.0 °F 77% 29.85 in 10.0 mi WSW 3.5 mph - N/A   Clear
2:53 AM 55.9 °F 48.9 °F 77% 29.86 in 10.0 mi Calm Calm - N/A   Clear
3:53 AM 55.0 °F 50.0 °F 83% 29.85 in 10.0 mi Calm Calm - N/A   Clear
4:53 AM 54.0 °F 48.0 °F 80% 29.84 in 10.0 mi Calm Calm - N/A   Clear
5:53 AM 52.0 °F 48.0 °F 86% 29.85 in 10.0 mi Calm Calm - N/A   Clear
6:53 AM 51.1 °F 46.9 °F 86% 29.85 in 10.0 mi Calm Calm - N/A   Clear
7:53 AM 51.1 °F 46.9 °F 86% 29.85 in 10.0 mi Calm Calm - N/A   Clear
8:53 AM 59.0 °F 50.0 °F 72% 29.85 in 10.0 mi Calm Calm - N/A   Clear
9:53 AM 64.9 °F 51.1 °F 61% 29.85 in 10.0 mi Calm Calm - N/A   Clear
10:53 AM 71.1 °F 46.9 °F 42% 29.85 in 10.0 mi Variable 3.5 mph - N/A   Clear
11:53 AM 73.0 °F 42.1 °F 33% 29.82 in 10.0 mi NNE 8.1 mph - N/A   Clear
12:53 PM 75.0 °F 39.0 °F 27% 29.80 in 10.0 mi Calm Calm - N/A   Clear
1:53 PM 75.0 °F 35.1 °F 23% 29.77 in 10.0 mi Calm Calm - N/A   Clear
2:53 PM 77.0 °F 37.0 °F 24% 29.74 in 10.0 mi Variable 4.6 mph - N/A   Clear
3:53 PM 77.0 °F 36.0 °F 23% 29.73 in 10.0 mi Variable 3.5 mph - N/A   Clear
4:53 PM 77.0 °F 35.1 °F 22% 29.72 in 10.0 mi Calm Calm - N/A   Clear
5:53 PM 73.0 °F 30.9 °F 21% 29.72 in 10.0 mi WNW 3.5 mph - N/A   Clear
6:53 PM 69.1 °F 33.1 °F 26% 29.72 in 10.0 mi WNW 4.6 mph - N/A   Clear
7:53 PM 66.9 °F 35.1 °F 31% 29.73 in 10.0 mi WNW 6.9 mph - N/A   Clear
8:53 PM 64.9 °F 35.1 °F 33% 29.75 in 10.0 mi WNW 5.8 mph - N/A   Clear
9:53 PM 64.0 °F 34.0 °F 33% 29.75 in 10.0 mi WNW 9.2 mph - N/A   Clear
10:53 PM 62.1 °F 33.1 °F 34% 29.77 in 10.0 mi NW 8.1 mph - N/A   Clear
11:53 PM 62.1 °F 30.9 °F 31% 29.78 in 10.0 mi NW 8.1 mph - N/A   Clear